Milton High School FL US WEATHERSTEM current weather conditions

sailwx.info

Wind from 317 at 0 knots gusting 3

Air temperature 15.3° C
Dewpoint 12.4° C

Last reported at 2020-Sep-30 04:00 UTC.
Time now 2020-Sep-30 05:13 UTC

Location: N 30°38' W 087°03'.
View on Google Maps.

See reports from other nearby stations

  
Tides and Currents Weather Stations Pressure Air Temp Water Temp Dewpoint Dewpoint Depression Visibility Wind Speed Wind Dir Waves Ship Positions
date/time (UTC)wind fromknots sea level pressurealtimeterstation pressurevisibilityair tempwater tempwave heightnotes
2020-Sep-30 04:00 317 0 gusting 3 15.3
2020-Sep-30 03:50 329 0 gusting 3 15.2
2020-Sep-30 03:40 346 1 gusting 3 15.2
2020-Sep-30 03:30 346 1 gusting 2 15.3
2020-Sep-30 03:20 346 2 gusting 1 15.3
2020-Sep-30 03:10 346 0 gusting 1 15.5
2020-Sep-30 03:00 346 0 gusting 1 15.8
2020-Sep-30 02:50 346 0 gusting 1 15.9
2020-Sep-30 02:40 16.2
2020-Sep-30 02:30 346 0 gusting 1 16.3
2020-Sep-30 02:20 16.6
2020-Sep-30 02:10 16.8
2020-Sep-30 02:00 17.1
2020-Sep-30 01:50 17.3
2020-Sep-30 01:40 17.4
2020-Sep-30 01:30 347 0 gusting 3 17.4
2020-Sep-30 01:20 338 2 gusting 2 17.5
2020-Sep-30 01:10 17.7
2020-Sep-30 01:00 332 0 gusting 2 17.9
2020-Sep-30 00:50 034 0 gusting 1 18.1
2020-Sep-30 00:40 18.5
2020-Sep-30 00:30 035 0 gusting 1 18.9
2020-Sep-30 00:20 034 0 gusting 0 19.3
2020-Sep-30 00:10 035 0 gusting 1 19.8
2020-Sep-30 00:00 20.1
2020-Sep-29 23:50 20.5
2020-Sep-29 23:40 035 0 gusting 2 20.8
2020-Sep-29 23:30 21.2
2020-Sep-29 23:20 21.3
2020-Sep-29 23:10 042 0 gusting 4 21.4
2020-Sep-29 23:00 038 3 gusting 5 21.5
2020-Sep-29 22:50 049 3 gusting 6 21.7
2020-Sep-29 22:40 005 2 gusting 12 21.9
2020-Sep-29 22:30 022 5 gusting 10 22.1
2020-Sep-29 22:20 050 4 gusting 10 22.0
2020-Sep-29 22:10 057 8 gusting 10 22.3
2020-Sep-29 22:00 005 5 gusting 9 22.2
2020-Sep-29 21:50 005 4 gusting 9 22.0
2020-Sep-29 21:40 030 5 gusting 10 22.2
2020-Sep-29 21:30 342 3 gusting 13 22.1
2020-Sep-29 21:20 329 8 gusting 10 21.8
2020-Sep-29 21:10 360 7 gusting 12 21.3
2020-Sep-29 21:00 011 9 gusting 13 21.2
2020-Sep-29 20:40 340 6 gusting 9 21.3
2020-Sep-29 20:30 032 8 gusting 17 21.2
2020-Sep-29 20:10 342 8 gusting 13 21.0
2020-Sep-29 20:00 058 5 gusting 10 21.1
2020-Sep-29 19:50 355 1 gusting 10 20.7
2020-Sep-29 19:30 005 5 gusting 13 20.3
2020-Sep-29 19:20 005 11 gusting 12 20.6
2020-Sep-29 19:10 341 9 gusting 15 20.6
2020-Sep-29 19:00 340 9 gusting 16 21.0
2020-Sep-29 18:50 327 2 gusting 18 20.6
2020-Sep-29 18:40 024 16 gusting 15 20.1
2020-Sep-29 18:20 032 5 gusting 13 20.4
2020-Sep-29 18:10 062 5 gusting 13 20.2
2020-Sep-29 18:00 347 9 gusting 15 20.1
2020-Sep-29 17:50 296 4 gusting 13 19.3
2020-Sep-29 17:40 005 7 gusting 13 18.8
2020-Sep-29 17:30 351 6 gusting 13 18.7
2020-Sep-29 17:20 336 7 gusting 13 18.9
2020-Sep-29 17:10 333 2 gusting 13 18.8
2020-Sep-29 16:50 011 8 gusting 13 19.8
2020-Sep-29 16:40 017 6 gusting 13 19.8
2020-Sep-29 16:30 349 5 gusting 12 19.7
2020-Sep-29 16:10 017 8 gusting 11 19.9
2020-Sep-29 15:50 018 4 gusting 9 19.8
2020-Sep-29 15:40 355 0 gusting 15 19.6
2020-Sep-29 15:30 040 4 gusting 11 19.3
2020-Sep-29 15:20 037 2 gusting 13 19.1
2020-Sep-29 15:10 360 8 gusting 13 19.2
2020-Sep-29 15:00 005 11 gusting 13 19.1
2020-Sep-29 14:50 336 6 gusting 14 18.9
2020-Sep-29 14:40 355 10 gusting 13 18.7
2020-Sep-29 14:30 022 5 gusting 13 18.6
2020-Sep-29 14:20 014 4 gusting 16 18.6
2020-Sep-29 14:10 009 6 gusting 16 18.6
2020-Sep-29 14:00 005 11 gusting 17 18.7
2020-Sep-29 13:50 339 10 gusting 15 18.5
2020-Sep-29 13:40 005 6 gusting 13 18.4
2020-Sep-29 13:30 316 2 gusting 12 18.3
2020-Sep-29 13:20 005 5 gusting 13 18.2
2020-Sep-29 13:10 350 3 gusting 15 18.1
2020-Sep-29 13:00 022 5 gusting 13 18.1
2020-Sep-29 12:50 343 6 gusting 12 18.1
2020-Sep-29 12:40 352 6 gusting 12 18.1
2020-Sep-29 12:30 319 4 gusting 12 18.1
2020-Sep-29 12:20 009 4 gusting 12 18.0
2020-Sep-29 12:10 076 3 gusting 9 17.9
2020-Sep-29 12:00 043 2 gusting 9 17.9
2020-Sep-29 11:50 046 3 gusting 8 17.9
2020-Sep-29 11:40 044 2 gusting 10 17.9
2020-Sep-29 11:30 360 1 gusting 10 17.9
2020-Sep-29 11:20 030 4 gusting 12 17.9
2020-Sep-29 11:10 015 4 gusting 12 17.9
2020-Sep-29 11:00 011 4 gusting 12 17.9
2020-Sep-29 10:50 030 2 gusting 10 18.0
2020-Sep-29 10:40 005 2 gusting 9 18.0
2020-Sep-29 10:30 355 1 gusting 12 18.1
2020-Sep-29 10:20 344 5 gusting 10 18.1
2020-Sep-29 10:10 005 2 gusting 11 18.2
2020-Sep-29 10:00 346 4 gusting 10 18.3
2020-Sep-29 09:50 045 3 gusting 12 18.3
2020-Sep-29 09:40 029 4 gusting 11 18.4
2020-Sep-29 09:30 355 4 gusting 10 18.4
2020-Sep-29 09:20 009 4 gusting 8 18.6
2020-Sep-29 09:10 352 2 gusting 10 18.5
2020-Sep-29 09:00 320 7 gusting 13 18.6
2020-Sep-29 08:50 044 9 gusting 13 18.6
2020-Sep-29 08:40 027 5 gusting 13 18.7
2020-Sep-29 08:30 018 8 gusting 13 18.8
2020-Sep-29 08:20 350 5 gusting 12 18.9
2020-Sep-29 08:10 005 5 gusting 8 19.1
2020-Sep-29 07:50 013 7 gusting 10 19.2
2020-Sep-29 07:40 005 4 gusting 10 19.2
2020-Sep-29 07:30 019 3 gusting 13 19.3
2020-Sep-29 07:20 015 4 gusting 12 19.3
2020-Sep-29 07:10 342 7 gusting 11 19.3
2020-Sep-29 07:00 017 4 gusting 12 19.3
2020-Sep-29 06:50 352 2 gusting 12 19.4
2020-Sep-29 06:40 030 3 gusting 12 19.5
2020-Sep-29 06:30 329 5 gusting 13 19.6
2020-Sep-29 06:20 019 6 gusting 13 19.8
2020-Sep-29 06:10 331 3 gusting 11 19.8
2020-Sep-29 06:00 338 4 gusting 15 19.9
2020-Sep-29 05:50 336 10 gusting 14 20.2
2020-Sep-29 05:40 010 6 gusting 14 20.6
2020-Sep-29 05:30 062 7 gusting 15 20.9
2020-Sep-29 05:20 339 12 gusting 9 21.2
2020-Sep-29 05:10 350 5 gusting 9 21.6
2020-Sep-29 05:00 028 2 gusting 10 21.8
2020-Sep-29 04:50 350 2 gusting 9 21.9
2020-Sep-29 04:40 016 7 gusting 14 22.1
2020-Sep-29 04:30 352 5 gusting 13 22.6
2020-Sep-29 04:20 005 5 gusting 14 23.1
2020-Sep-29 04:10 347 1 gusting 9 23.2
2020-Sep-29 03:50 017 1 gusting 6 23.1
2020-Sep-29 03:40 352 2 gusting 6 23.2
2020-Sep-29 03:30 325 0 gusting 3 23.3
2020-Sep-29 03:20 355 1 gusting 5 23.4
2020-Sep-29 03:10 340 0 gusting 5 23.6
2020-Sep-29 03:00 005 0 gusting 7 23.7
2020-Sep-29 02:50 009 2 gusting 6 23.8
2020-Sep-29 02:40 327 4 gusting 7 24.0
2020-Sep-29 02:10 011 0 gusting 7 24.4
2020-Sep-29 02:00 005 3 gusting 6 24.4
2020-Sep-29 01:50 327 2 gusting 6 24.4
2020-Sep-29 01:40 340 4 gusting 6 24.6
2020-Sep-29 01:30 310 2 gusting 6 24.8
2020-Sep-29 01:20 342 2 gusting 7 25.0
2020-Sep-29 01:10 289 3 gusting 6 25.3
2020-Sep-29 01:00 307 1 gusting 8 25.5
2020-Sep-29 00:50 298 6 gusting 15 25.9
2020-Sep-29 00:40 297 7 gusting 13 26.8
2020-Sep-29 00:20 27.2
2020-Sep-29 00:10 27.4
2020-Sep-29 00:00 244 3 gusting 5 27.5
2020-Sep-28 23:50 201 2 gusting 3 27.6
2020-Sep-28 23:40 175 2 gusting 6 27.8
2020-Sep-28 23:30 244 3 gusting 6 27.9
2020-Sep-28 23:20 248 2 gusting 8 28.0
2020-Sep-28 23:10 225 7 gusting 12 28.1
2020-Sep-28 23:00 244 6 gusting 11 28.3
2020-Sep-28 22:50 208 8 gusting 10 28.7
2020-Sep-28 22:40 205 6 gusting 10 29.1
2020-Sep-28 22:30 235 8 gusting 9 29.3
2020-Sep-28 22:20 221 5 gusting 13 29.4
2020-Sep-28 22:10 243 8 gusting 10 29.9
2020-Sep-28 22:00 225 6 gusting 9 30.2
2020-Sep-28 21:50 234 9 gusting 11 30.6
2020-Sep-28 21:40 188 4 gusting 8 30.9
2020-Sep-28 21:20 206 7 gusting 13 30.9
2020-Sep-28 21:10 182 3 gusting 9 31.2
2020-Sep-28 17:10 140 1 gusting 6 31.6
2020-Sep-28 17:00 297 4 gusting 6 31.7
2020-Sep-28 16:50 233 2 gusting 8 31.2
2020-Sep-28 16:40 288 2 gusting 7 30.6
2020-Sep-28 16:30 269 3 gusting 6 30.3
2020-Sep-28 16:20 328 1 gusting 6 29.8
2020-Sep-28 16:10 252 0 gusting 6 29.2
2020-Sep-28 16:00 289 6 gusting 6 29.4
2020-Sep-28 15:50 207 3 gusting 7 28.6
2020-Sep-28 15:40 290 6 gusting 6 28.4
2020-Sep-28 15:30 240 3 gusting 8 28.1
2020-Sep-28 15:20 235 1 gusting 5 27.2
2020-Sep-28 15:10 248 2 gusting 5 26.3
2020-Sep-28 15:00 25.6
2020-Sep-28 14:50 087 2 gusting 2 25.1
2020-Sep-28 12:50 069 2 gusting 2 22.5
2020-Sep-28 12:40 22.4
2020-Sep-28 12:30 069 2 gusting 2 22.3
2020-Sep-28 12:20 069 0 gusting 2 22.3
2020-Sep-28 12:10 069 1 gusting 2 22.3
2020-Sep-28 12:00 069 0 gusting 2 22.3
2020-Sep-28 11:50 069 1 gusting 2 22.2
2020-Sep-28 11:40 22.2
2020-Sep-28 11:30 069 0 gusting 2 22.3
2020-Sep-28 11:20 069 0 gusting 2 22.2
2020-Sep-28 11:10 069 1 gusting 2 22.2
2020-Sep-28 11:00 069 1 gusting 3 22.2
2020-Sep-28 10:50 22.2
2020-Sep-28 10:40 071 3 gusting 3 22.2
2020-Sep-28 10:30 058 0 gusting 2 22.1
2020-Sep-28 10:20 058 0 gusting 2 22.1
2020-Sep-28 10:10 058 0 gusting 2 22.0
2020-Sep-28 10:00 21.9
2020-Sep-28 09:50 070 0 gusting 4 21.9
2020-Sep-28 09:40 044 0 gusting 2 21.8
2020-Sep-28 09:30 21.8
2020-Sep-28 09:20 061 2 gusting 3 21.7
2020-Sep-28 09:10 048 1 gusting 3 21.7
2020-Sep-28 09:00 038 1 gusting 3 21.7
2020-Sep-28 08:50 051 0 gusting 4 21.6
2020-Sep-28 08:40 071 2 gusting 4 21.6
2020-Sep-28 08:30 059 1 gusting 3 21.7
2020-Sep-28 08:20 058 2 gusting 3 21.7
2020-Sep-28 08:10 062 2 gusting 3 21.7
2020-Sep-28 08:00 062 1 gusting 3 21.7
2020-Sep-28 07:50 061 0 gusting 4 21.7
2020-Sep-28 07:40 062 1 gusting 2 21.7
2020-Sep-28 07:30 062 1 gusting 2 21.8
2020-Sep-28 07:20 062 1 gusting 2 21.8
2020-Sep-28 07:10 062 1 gusting 3 21.9
2020-Sep-28 07:00 062 1 gusting 3 22.1
2020-Sep-28 06:50 062 1 gusting 3 22.1
2020-Sep-28 06:40 059 1 gusting 3 22.2
2020-Sep-28 06:30 044 2 gusting 3 22.3
2020-Sep-28 06:20 026 2 gusting 3 22.3
2020-Sep-28 06:10 044 1 gusting 3 22.4
2020-Sep-28 06:00 072 1 gusting 2 22.5
2020-Sep-28 05:50 072 1 gusting 2 22.6
2020-Sep-28 05:40 072 0 gusting 2 22.6
2020-Sep-28 05:30 22.7
2020-Sep-28 05:20 072 1 gusting 2 22.7
2020-Sep-28 05:10 22.7
2020-Sep-28 05:00 22.8